Location: Beetenbrück
(52.8113°N, 9.5946°E)
Time: 21:25:33
(UTC+00:00)

Okean O Rocket - Pass Details

Date: 14 April 2026
Orbit: 612 x 635 km, 98.0° (Epoch: 12 May)

Event Time Altitude Azimuth Distance (km) Brightness Sun altitude
Exits shadow 20:02:23 17° 166° (SSE) 1,585 3.2 -14.5°
Maximum altitude 20:05:43 85° 255° (WSW) 634 1.6 -14.9°
Drops below altitude 10° 20:10:05 10° 345° (NNW) 2,003 5.0 -15.4°
Sets 20:12:17 0° 346° (NNW) 2,910 6.0 -15.7°
